Volver al catálogo

COSMOS 648

ActivoMilitarLEO
NORAD 7272·PAYLOAD·🇷🇺 Russia

Lanzado Apr 23, 1974 desde Plesetsk Cosmodrome

Loading…

Próximos Pases (próximas 24 horas)

TLE

ActualizadoSource: Space-Track

Época: Sep 14, 2026, 12:03 UTC

1 07272U 74024H   26257.50266503  .00000007  00000-0  15267-3 0  9995
2 07272  74.0193 172.9872 0033230 193.3785 279.0016 12.50377684391569

Sigue COSMOS 648 en tiempo real con AllMySat

Download on the App Store